Regional Weather Roundup
Issued by NWS

Home | Current Version | Previous Version | Graphics & Text | Print | Product List | Glossary On
Versions: 1 2 3 4 5 6 7 8 9 10 11 12 13 14 15 16 17 18 19 20 21 22 23 24 25 26 27 28 29 30 31 32 33 34 35 36 37 38 39 40 41 42 43 44 45 46 47 48 49 50
000
ASUS43 KDMX 230901
RWRIA

WEATHER ROUNDUP FOR IOWA
NATIONAL WEATHER SERVICE DES MOINES IA
400 AM CDT MON OCT 23 2017

NOTE: "FAIR" INDICATES FEW OR NO CLOUDS BELOW 12,000 FEET WITH NO
SIGNIFICANT WEATHER AND/OR OBSTRUCTIONS TO VISIBILITY.

* - THESE STATIONS ARE NOT NWS STATIONS...THUS NOT UNDER NWS
QUALITY CONTROL.  THEY ALSO DO NOT REPORT WEATHER SUCH
AS PRECIPITATION OR FOG.

IAZ001>003-012>014-020>022-031>034-043>046-231000-
   NORTHWEST IOWA

CITY           SKY/WX    TMP DP  RH WIND       PRES   REMARKS
DENISON *      CLEAR     48  34  57 S7        29.88F
LE MARS *      PTCLDY    48  36  61 SW6       29.84R
ORANGE CITY *  PTCLDY    46  36  66 W5        29.84R
SHELDON *      PTCLDY    46  34  61 VRB3      29.82R
SIOUX CITY     PTCLDY    44  37  76 E5        29.84F
SPENCER        CLEAR     47  33  58 SW7       29.82F
STORM LAKE *   CLEAR     48  34  57 SW9       29.84F
$$

IAZ055>058-069>071-079>083-090>094-231000-
   SOUTHWEST IOWA

CITY           SKY/WX    TMP DP  RH WIND       PRES   REMARKS
ATLANTIC *     CLEAR     43  36  75 SW7       29.90F
AUDUBON *      CLEAR     43  37  81 S3        29.89F
CLARINDA *     CLEAR     43  37  81 S7        29.95F
COUNCIL BLFS * CLEAR     46  36  66 S8        29.87F
CRESTON *      CLEAR     43  39  87 S10       29.94F
HARLAN  *      PTCLDY    41  37  87 CALM      29.92F
LAMONI         CLEAR     45  40  82 S10       29.96F
RED OAK *      CLEAR     45  36  70 S6        29.91F
SHENANDOAH *   CLEAR     45  37  76 S3        29.92F
$$

IAZ047>049-059>061-072>074-084-231000-
   CENTRAL IOWA

CITY           SKY/WX    TMP DP  RH WIND       PRES   REMARKS
AMES           CLEAR     40  40 100 SE6       29.91F
ANKENY *       CLEAR     45  41  87 S5        29.94F
BOONE *        CLEAR     46  39  76 S8        29.89F
CHARITON *     CLEAR     45  41  87 S9        29.96S
DES MOINES     CLEAR     46  41  82 S10       29.93F
GRINNELL*      CLEAR     42  39  90 S6        29.96F
KNOXVILLE *    CLEAR     45  39  81 S9        29.94F
MARSHALLTOWN   CLEAR     44  40  85 S6        29.93F
NEWTON *       CLEAR     41  39  93 S5        29.95F
PELLA *        CLEAR     42  39  89 SE3       29.96F
$$

IAZ004>006-015-016-023>025-035-036-231000-
   NORTH CENTRAL IOWA

CITY           SKY/WX    TMP DP  RH WIND       PRES   REMARKS
ALGONA *       PTCLDY    46  36  66 S9        29.85F
CLARION *      PTCLDY    48  39  71 S14       29.86F
ESTHERVILLE    CLEAR     40  36  86 S6        29.82F
FORT DODGE *   PTCLDY    49  35  58 S8        29.87F
MASON CITY     CLOUDY    46  39  76 S9        29.88F
FOREST CITY *    N/A     46  37  71 S6        29.86F
WEBSTER CITY * PTCLDY    45  37  76 S7        29.86F
IOWA FALLS *     N/A     42  40  91 SE7       29.92F
$$

IAZ007>011-017>019-026>030-037>042-050>054-066-231000-
   NORTHEAST IOWA

CITY           SKY/WX    TMP DP  RH WIND       PRES   REMARKS
CEDAR RAPIDS   CLOUDY    41  40  96 S5        29.96F
CHARLES CITY * CLEAR     45  43  93 S7        29.91F
CLINTON *      FOG       45  44  97 NW3       29.97F VSB 3/4
DECORAH *      CLEAR     43  41  93 S5        29.92F
DUBUQUE        CLOUDY    41  40  96 S5        29.97F
MONTICELLO *   CLOUDY    39  39 100 CALM      29.98R
OELWEIN *      CLEAR     43  43 100 S7        29.95F
WATERLOO       CLEAR     42  40  92 S7        29.93F
$$

IAZ064-065-067-068-078-231000-
   EAST CENTRAL IOWA

CITY           SKY/WX    TMP DP  RH WIND       PRES   REMARKS
DAVENPORT      FOG       45  44  97 CALM      29.99F VSB 1/4
IOWA CITY      FOG       43  42  97 CALM      29.99F VSB 1/2
MUSCATINE *    CLOUDY    45  43  93 CALM      29.98F FOG
QUAD CITIES    CLOUDY    48  46  93 CALM      29.97F
$$

IAZ062-063-075>077-085>089-095>099-231000-
   SOUTHEAST IOWA

CITY           SKY/WX    TMP DP  RH WIND       PRES   REMARKS
BURLINGTON     CLOUDY    47  47 100 N3        29.95F
FAIRFIELD *    CLOUDY    45  41  87 S5        29.98F
FORT MADISON * MOCLDY    46  46 100 CALM      29.96F
KEOKUK *       CLOUDY    46  46 100 CALM      29.95F
OSKALOOSA *      N/A     42  41  97 S8        29.97F
OTTUMWA        CLOUDY    44  42  93 S6        29.97F
WASHINGTON *     N/A     45  43  93 SW5       29.99F
$$

ABBREVIATIONS USED IN REMARKS
   TC - TEMPERATURES IN CELSIUS
  WCI - WIND CHILL INDEX
   HX - HEAT INDEX
  VSB - VISIBILITY
$$




USA.gov is the U.S. government's official web portal to all federal, state and local government web resources and services.